Home   Weather   Merida   Past weeks

Flag for Mexico Past Weather in Merida, Yucatán, Mexico — Yesterday and Last 2 Weeks

Now
79 °F

Partly sunny.


Feels Like: 82 °F
Forecast: 74 / 96 °F
Wind: 17 mph from Southeast

Location: Aerop. Internacional Merida - Yuc

Current Time: Feb 20, 2017 at 9:33:49 am

Latest Report: Feb 20, 2017 at 8:45 am


Visibility: 7 mi

Pressure: 29.97 "Hg

Humidity: 79%

Dew Point: 72 °F

Location of MeridaLocation

Past Weather in Merida — Graph

°F

Merida Temperature Yesterday

Maximum temperature yesterday: 97 °F (at 1:46 pm)
Minimum temperature yesterday: 72 °F (at 3:49 am)
Average temperature yesterday: 83 °F

High & Low Weather Summary for the Past Weeks

 TemperatureHumidityPressure
High97 °F (Feb 18, 3:51 pm)100% (Feb 9, 7:39 am)30.25 "Hg (Feb 9, 7:39 am)
Low64 °F (Feb 14, 6:48 am)24% (Feb 12, 12:45 pm)29.78 "Hg (Feb 14, 2:52 pm)
Average79 °F66%29.99 "Hg
* Reported Feb 5 7:42 am — Feb 20 7:46 am, Merida, Weather by CustomWeather, © 2017

Note: Actual official high and low records may vary slightly from our data, if they occured in-between our weather recording intervals... More about our weather records

Advertising

Merida Weather History for the Previous 24 Hours

Scroll right to see more
 ConditionsComfort  
Time TempWeatherWind HumidityBarometerVisibility
7:46 am
Mon, Feb 20
75 °FPartly sunny.14 mph89%29.95 "Hg6 mi
7:05 am73 °FPartly sunny.12 mph94%29.95 "Hg6 mi
6:10 am73 °FPassing clouds.9 mph94%29.94 "Hg7 mi
4:48 am72 °FPassing clouds.9 mph94%29.92 "Hg7 mi
3:48 am73 °FPassing clouds.12 mph89%29.91 "Hg7 mi
2:48 am73 °FPassing clouds.13 mph89%29.92 "Hg7 mi
1:48 am75 °FPassing clouds.13 mph83%29.92 "Hg7 mi
12:48 am77 °FPassing clouds.12 mph79%29.94 "Hg7 mi
11:48 pm
Sun, Feb 19
77 °FPassing clouds.16 mph69%29.93 "Hg7 mi
10:48 pm81 °FPassing clouds.16 mph58%29.93 "Hg7 mi
9:48 pm82 °FPassing clouds.16 mph55%29.92 "Hg7 mi
8:50 pm84 °FPassing clouds.12 mph48%29.92 "Hg7 mi
7:44 pm84 °FPassing clouds.10 mph51%29.87 "Hg7 mi
6:50 pm84 °FPassing clouds.5 mph58%29.85 "Hg7 mi
5:46 pm91 °FPartly sunny.5 mph34%29.85 "Hg7 mi
4:45 pm95 °FPartly sunny.8 mph30%29.82 "Hg7 mi
3:51 pm97 °FPartly sunny.14 mph28%29.82 "Hg7 mi
2:44 pm97 °FPartly sunny.8 mph32%29.89 "Hg7 mi
1:46 pm97 °FPartly sunny.10 mph34%29.84 "Hg7 mi
12:45 pm93 °FPartly sunny.9 mph39%29.87 "Hg7 mi
11:45 am91 °FPartly sunny.17 mph44%29.93 "Hg7 mi
10:46 am88 °FScattered clouds.15 mph52%29.94 "Hg7 mi
9:44 am84 °FPartly sunny.18 mph62%29.96 "Hg7 mi
Weather by CustomWeather, © 2017

See weather overviewHow to use our weather pages